STARLINK-34887, 65103

Orbit data source: Space-Track

STARLINK-34887, 65103 is a payload satellite owned by SpaceX/Seattle (US) in LEO that was launched on Mon, 04 Aug 2025 UTC via an FALCON 9 launch vehicle from the Air Force Eastern Test Range (AFETR). Payload-class satellites include a variety of spacecraft equipped with specific instruments for various scientific and technological missions. These include communications satellites like Starlink; space stations such as the ISS; scientific satellites like the Hubble; Earth observation satellites from companies like Planet Labs, Umbra, and HawkEye 360; GPS; miniature CubeSats for education and research; and military/defense satellites.

Loading next visibility...
Identifier
65103, 2025-167AB
Orbit
LEO
Country
Flag of USUS
Related business
Manufacturer
SpaceX/Seattle
Mission
Operational Commercial Communications
Bus & Motor
STARLINK V2MO, Unknown motor
Mass
575 kg wet, ~530 kg dry
Launch date (UTC)
2025-08-04 (9 months ago)
Launch vehicle
FALCON 9
Launch site
Air Force Eastern Test Range (AFETR)
Object type
Payload
Rocket body
Debris
Shape & HBR
Box + 2 Pan, 17.7 m
Radar Cross Section
36.964 m², Large (>1 m²)

Expand to show TLE details & history
Last TLE update: 11 hours ago

TLE from 11 hours ago
0 STARLINK-34887
1 65103U 25167AB  26127.28796186  .00012441  00000-0  43150-3 0  9999
2 65103  53.1598 114.3171 0001274  83.3115 276.8031 15.30196606 42450
Epoch: 2026-05-07T06:54Z
TLE epoch observation values (Epoch: 2026-05-07T06:54:39.904Z)
Latitude
-0.00001°
Longitude
145.51457°
Altitude
476.022 km
Speed
7.629 km/s
True Right ascension
07h 37m 16s
True Declination
0° 00' 00"
Sunlit
Object was in daylight at epoch
Visualization orbit readout
Latitude
Unknown
Longitude
Unknown
Altitude
Unknown
Speed
Unknown
Apparent Right ascension
Unknown
Apparent Declination
Unknown
Sunlit
N/A
Visualization observer readout
Local Sidereal Time
01:52:07
Azimuth
Unknown
Elevation
Unknown
Doppler factor
Unknown
Orbital elements
Apogee altitude
476.355 km
Perigee altitude
474.609 km
Semi-major axis
6,853.619 km
Eccentricity
0.00013
Inclination
53.1598°
RAAN
114.3171°
Arg. of periapsis
83.3115°
True anomaly
276.7886°
Mean anomaly
276.8031°
Eccentric anomaly
276.79585°
Mean motion
3.82528 °/min
Orbital period
94.11 mins
BSTAR
0.0004315
Loading maneuver chart data...
Computing Atmospheric mass density...
Loading historical data...
Loading historical data...
Loading historical data...
Loading historical data...
Loading historical data...
Loading historical data...
Loading historical data...

Documentation

Showing up to 5 results
|